Total_Precipitation_Accumulation
2.03 2.06 2.95 2.78 2.55 2.49 2.39 2.36 2.30 2.22 2.15 1.98 1.80 1.69 1.68 1.62 1.45 1.37 1.28 1.22 1.28 1.45 1.43 1.62 1.75 1.67 1.69 1.69 1.66 1.55 1.57 1.67 1.58 1.36 1.26 1.28 1.37 1.65 1.80 1.88 1.89 1.84 1.98
1.61 2.01 2.97 2.83 2.64 2.45 2.36 2.41 2.32 2.11 1.93 1.70 1.63 1.62 1.63 1.52 1.41 1.25 1.19 1.22 1.27 1.35 1.43 1.59 1.66 1.64 1.63 1.69 1.72 1.70 1.70 1.64 1.54 1.40 1.48 1.52 1.63 1.77 1.78 1.80 2.01 2.02 1.97
1.45 1.70 2.28 2.89 2.71 2.47 2.37 2.41 2.34 2.08 1.73 1.48 1.45 1.46 1.38 1.29 1.29 1.23 1.22 1.19 1.19 1.19 1.24 1.42 1.62 1.67 1.63 1.61 1.65 1.68 1.73 1.64 1.60 1.71 2.13 2.51 2.15 1.96 1.73 1.78 1.89 1.81 1.79
1.30 1.48 1.78 2.58 2.53 2.48 2.44 2.22 2.17 1.91 1.56 1.41 1.39 1.35 1.25 1.22 1.28 1.36 1.31 1.25 1.26 1.20 1.14 1.20 1.45 1.64 1.62 1.55 1.45 1.49 1.64 1.69 1.80 2.06 2.43 2.86 2.67 2.29 2.04 1.87 1.83 1.75 1.76
1.30 1.52 2.15 2.67 2.43 2.37 2.23 2.01 2.00 1.87 1.61 1.48 1.42 1.34 1.31 1.30 1.26 1.34 1.32 1.30 1.34 1.28 1.24 1.31 1.54 1.53 1.52 1.51 1.42 1.45 1.62 1.84 2.03 1.97 2.24 2.62 2.94 2.77 2.21 1.94 1.91 1.91 1.98
1.32 1.52 2.11 2.40 2.14 2.01 1.93 1.85 1.79 1.83 1.80 1.56 1.39 1.38 1.42 1.39 1.43 1.46 1.44 1.35 1.41 1.40 1.44 1.47 1.53 1.56 1.52 1.58 1.56 1.49 1.67 1.93 1.83 1.82 2.24 2.60 2.79 2.63 2.11 1.93 2.02 2.12 2.21
1.16 1.27 1.69 2.09 1.90 1.79 1.77 1.75 1.67 1.75 1.82 1.67 1.41 1.48 1.52 1.49 1.56 1.61 1.59 1.46 1.49 1.50 1.53 1.57 1.51 1.62 1.65 1.62 1.68 1.68 1.72 1.76 1.57 1.80 2.23 2.59 2.53 2.33 2.11 1.93 1.94 2.21 2.44
1.20 1.14 1.31 1.69 1.75 1.63 1.64 1.77 1.68 1.67 1.74 1.67 1.53 1.54 1.47 1.51 1.62 1.69 1.62 1.51 1.46 1.50 1.57 1.58 1.57 1.64 1.62 1.68 1.76 1.88 1.92 1.66 1.30 1.42 1.71 2.36 2.79 2.58 2.14 1.86 1.90 2.08 2.34
1.48 1.35 1.21 1.23 1.37 1.48 1.57 1.71 1.68 1.61 1.61 1.54 1.61 1.63 1.67 1.70 1.66 1.58 1.54 1.49 1.49 1.55 1.58 1.54 1.52 1.58 1.62 1.69 1.72 1.85 1.98 1.85 1.51 1.44 1.45 2.19 2.80 2.70 2.15 1.84 1.78 2.00 2.14
1.55 1.42 1.20 1.09 1.10 1.21 1.23 1.44 1.63 1.67 1.63 1.53 1.57 1.68 1.77 1.74 1.62 1.56 1.45 1.53 1.60 1.59 1.67 1.63 1.53 1.55 1.65 1.63 1.67 1.89 1.99 1.75 1.41 1.33 1.58 2.16 2.88 2.90 2.49 1.91 1.67 1.68 1.78
1.29 1.22 1.14 1.10 1.12 1.22 1.25 1.28 1.58 1.66 1.59 1.41 1.36 1.54 1.58 1.44 1.42 1.49 1.50 1.77 1.74 1.79 1.87 1.79 1.69 1.64 1.53 1.56 1.75 1.91 1.79 1.47 1.42 1.45 1.82 2.46 2.88 2.88 2.66 2.17 1.75 1.58 1.56
1.01 0.92 0.90 0.92 1.00 1.12 1.17 1.51 1.77 1.59 1.52 1.27 1.28 1.25 1.33 1.37 1.49 1.34 1.47 1.83 1.86 1.90 1.86 1.86 1.78 1.60 1.28 1.12 1.41 1.54 1.37 1.40 1.43 1.42 1.88 2.57 2.88 2.86 2.58 2.27 1.91 1.71 1.64
0.78 0.71 0.67 0.63 0.65 0.74 0.96 1.30 1.61 1.75 1.75 1.73 1.52 1.31 1.35 1.16 1.06 1.03 1.13 1.32 1.40 1.48 1.42 1.49 1.48 1.23 1.10 1.09 1.13 1.19 1.35 1.33 1.51 1.52 1.93 2.56 2.81 2.88 2.67 2.36 2.04 1.84 1.77
0.75 0.71 0.63 0.58 0.53 0.57 0.63 0.82 1.07 1.25 1.36 1.41 1.32 1.16 1.21 1.11 1.03 1.04 1.06 1.05 1.05 1.16 1.29 1.29 1.29 1.18 1.06 1.01 0.99 1.12 1.22 1.21 1.41 1.66 2.03 2.28 2.59 2.90 2.84 2.51 2.24 2.04 1.98
0.85 0.85 0.76 0.63 0.56 0.57 0.62 0.68 0.77 0.94 1.06 1.09 1.15 1.08 1.08 1.12 1.11 1.07 0.98 0.98 0.90 1.01 1.17 1.27 1.24 1.16 1.17 1.15 1.06 1.18 1.27 1.36 1.42 1.49 1.68 1.94 2.26 2.75 3.09 3.02 2.68 2.35 2.22
0.90 0.90 0.88 0.75 0.71 0.68 0.65 0.67 0.72 0.82 0.87 0.88 0.87 0.88 0.99 1.09 1.07 1.07 1.05 1.07 1.03 1.07 1.21 1.23 1.15 1.20 1.30 1.23 1.09 1.14 1.24 1.31 1.38 1.40 1.48 1.70 1.97 2.25 2.85 3.20 3.06 2.81 2.76
0.88 0.84 0.85 0.85 0.87 0.83 0.78 0.73 0.70 0.79 0.86 0.85 0.82 0.75 0.78 0.89 0.93 0.99 1.01 1.02 1.07 1.18 1.25 1.32 1.16 1.20 1.20 1.15 1.16 1.16 1.15 1.19 1.21 1.23 1.23 1.33 1.50 1.80 2.33 2.83 3.12 3.17 3.23
0.75 0.73 0.79 0.79 0.83 0.87 0.87 0.86 0.87 0.86 0.93 0.89 0.87 0.77 0.72 0.78 0.87 1.01 1.04 1.02 1.05 1.21 1.34 1.43 1.35 1.34 1.31 1.28 1.28 1.26 1.17 1.21 1.13 1.13 1.17 1.19 1.38 1.40 1.78 2.23 2.58 2.82 3.16
0.68 0.68 0.68 0.73 0.72 0.79 0.85 0.88 0.99 1.02 1.04 0.98 0.95 0.84 0.80 0.87 0.97 1.16 1.26 1.26 1.25 1.28 1.32 1.32 1.42 1.47 1.45 1.44 1.35 1.33 1.29 1.21 1.24 1.14 1.16 1.26 1.27 1.37 1.62 1.85 2.03 2.16 2.57
0.66 0.64 0.63 0.68 0.69 0.71 0.84 0.95 1.12 1.24 1.22 1.23 1.13 1.01 1.01 1.17 1.33 1.49 1.48 1.57 1.62 1.53 1.53 1.49 1.55 1.53 1.46 1.53 1.42 1.29 1.27 1.19 1.31 1.36 1.30 1.36 1.37 1.38 1.74 1.94 1.87 1.72 2.05
0.58 0.61 0.60 0.59 0.68 0.71 0.75 0.88 1.10 1.39 1.50 1.60 1.51 1.31 1.24 1.36 1.63 1.88 1.85 1.93 2.00 1.91 1.87 1.88 2.10 2.05 1.77 1.59 1.69 1.55 1.39 1.26 1.43 1.49 1.43 1.54 1.62 1.75 1.97 1.99 1.80 1.60 1.50
0.47 0.53 0.55 0.55 0.63 0.68 0.72 0.87 1.03 1.20 1.20 1.37 1.49 1.45 1.38 1.37 1.53 1.67 1.96 2.10 2.08 2.18 2.29 2.28 2.66 2.78 2.29 1.86 1.95 2.21 1.97 1.77 1.59 1.46 1.50 1.57 1.70 1.92 2.04 1.93 1.74 1.51 1.35
0.38 0.38 0.40 0.45 0.53 0.64 0.78 0.97 1.18 1.38 1.46 1.52 1.44 1.52 1.54 1.45 1.50 1.61 1.77 1.92 1.97 2.10 2.27 2.38 2.72 3.26 3.01 2.36 2.18 2.60 2.37 2.15 2.04 1.74 1.57 1.57 1.62 1.89 2.17 2.11 1.86 1.63 1.43
0.35 0.32 0.35 0.45 0.58 0.78 0.97 1.19 1.43 1.62 1.66 1.55 1.57 1.60 1.49 1.41 1.38 1.47 1.61 1.74 1.86 1.91 2.08 2.18 2.33 2.88 3.28 2.96 2.68 2.38 2.05 2.00 2.20 2.19 1.84 1.64 1.63 1.75 1.97 1.97 1.85 1.78 1.63
0.39 0.39 0.45 0.65 0.88 1.12 1.33 1.58 1.86 1.84 1.72 1.61 1.58 1.58 1.52 1.51 1.47 1.47 1.61 1.69 1.71 1.79 1.91 2.25 2.53 2.82 3.06 3.07 3.06 2.85 2.55 2.27 1.95 2.22 2.26 1.92 1.79 1.74 1.80 1.86 1.77 1.76 1.75
0.68 0.82 1.00 1.25 1.42 1.51 1.63 1.79 1.90 1.84 1.84 1.78 1.59 1.52 1.52 1.57 1.62 1.63 1.67 1.69 1.67 1.72 1.84 2.08 2.38 2.62 2.94 3.17 3.13 2.93 2.79 2.67 2.43 2.35 2.22 2.05 2.06 1.91 1.79 1.77 1.64 1.63 1.76